Weather History for Idaho Falls, ID

Change the Weather History Date:

Saturday, June 15, 2013

  Actual Average Record
Temperature  
Mean Temperature 57 °F 61 °F  
Max Temperature 79 °F 76 °F 97 °F (1974)
Min Temperature 34 °F 45 °F 32 °F (1981)
Degree Days  
Heating Degree Days 8 5  
Month to date heating degree days 62 100  
Since 1 June heating degree days 62 100  
Since 1 July heating degree days 7477 7791  
Cooling Degree Days 0 1  
Month to date cooling degree days 21 6  
Year to date cooling degree days 25 8  
Since 1 June cooling degree days 21 6  
Growing Degree Days 6 (Base 50)    
Moisture  
Dew Point 30 °F    
Average Humidity 46    
Maximum Humidity 82    
Minimum Humidity 10    
Precipitation  
Precipitation 0.00 in 0.04 in 0.69 in (1980)
Month to date precipitation 0.12 0.72  
Year to date precipitation 1.90 5.57  
Sea Level Pressure  
Sea Level Pressure 30.03 in    
Wind  
Wind Speed 7 mph (NNW)    
Max Wind Speed 15 mph    
Max Gust Speed 20 mph    
Visibility 10 miles    
Events      
T = Trace of Precipitation, MM = Missing Value Source: NWS Daily Summary

Daily Weather History Graph

Daily Weather History Graph

Search for Another Location

Airport:

Trip Planner

Search our weather history database for the weather conditions in past years. The results will help you decide how hot, cold, wet, or windy it might be!

Date:

Astronomy

Jun. 15, 2013 Rise Set
Actual Time 5:46 AM MDT 9:11 PM MDT
Civil Twilight 5:10 AM MDT 9:47 PM MDT
Nautical Twilight 4:24 AM MDT 10:33 PM MDT
Astronomical Twilight 3:25 AM MDT 11:32 PM MDT
Moon 12:36 PM MDT (6/15) 12:38 AM MDT (6/15)
Length of Visible Light 16h 36m
Length of Day
15h 24m
Waxing Crescent, 40% of the Moon is Illuminated
Jun 15
Waxing Crescent
Jun 16
First Quarter
Jun 23
Full
Jun 29
Last Quarter
Jul 8
New

Hourly Weather History & Observations

Time (MDT) Temp. Windchill Dew Point Humidity Pressure Visibility Wind Dir Wind Speed Gust Speed Precip Events Conditions
12:53 AM 43.0 °F 41.3 °F 34.0 °F 71% 30.12 in 10.0 mi North 3.5 mph - N/A   Clear
1:53 AM 39.9 °F 37.8 °F 33.1 °F 77% 30.12 in 10.0 mi NNE 3.5 mph - N/A   Clear
2:53 AM 39.9 °F 37.8 °F 32.0 °F 73% 30.11 in 10.0 mi NNE 3.5 mph - N/A   Clear
3:53 AM 39.0 °F 36.8 °F 32.0 °F 76% 30.09 in 10.0 mi NE 3.5 mph - N/A   Clear
4:53 AM 36.0 °F 29.6 °F 30.9 °F 82% 30.10 in 10.0 mi North 8.1 mph - N/A   Clear
5:53 AM 35.1 °F 30.1 °F 30.9 °F 85% 30.11 in 10.0 mi North 5.8 mph - N/A   Clear
6:53 AM 37.0 °F 31.6 °F 32.0 °F 82% 30.12 in 10.0 mi North 6.9 mph - N/A   Clear
7:53 AM 43.0 °F 38.2 °F 34.0 °F 71% 30.11 in 10.0 mi North 8.1 mph - N/A   Mostly Cloudy
8:53 AM 50.0 °F - 37.0 °F 61% 30.09 in 10.0 mi North 8.1 mph - N/A   Clear
9:53 AM 59.0 °F - 33.1 °F 38% 30.06 in 10.0 mi NNE 6.9 mph - N/A   Clear
10:53 AM 64.0 °F - 35.1 °F 34% 30.04 in 10.0 mi NNE 10.4 mph - N/A   Clear
11:53 AM 66.0 °F - 28.9 °F 25% 30.03 in 10.0 mi North 9.2 mph - N/A   Clear
12:53 PM 68.0 °F - 33.1 °F 27% 30.04 in 10.0 mi Variable 6.9 mph - N/A   Clear
1:53 PM 71.1 °F - 33.1 °F 25% 30.02 in 10.0 mi NNW 8.1 mph - N/A   Clear
2:53 PM 73.0 °F - 30.9 °F 21% 29.99 in 10.0 mi West 5.8 mph - N/A   Clear
3:53 PM 77.0 °F - 17.1 °F 10% 29.98 in 10.0 mi South 12.7 mph 17.3 mph N/A   Clear
4:53 PM 78.1 °F - 17.1 °F 10% 29.96 in 10.0 mi SSW 12.7 mph - N/A   Clear
5:53 PM 78.1 °F - 17.1 °F 10% 29.96 in 10.0 mi SSW 12.7 mph - N/A   Clear
6:53 PM 78.1 °F - 17.1 °F 10% 29.94 in 10.0 mi SW 8.1 mph - N/A   Clear
7:53 PM 77.0 °F - 21.9 °F 13% 29.94 in 10.0 mi SSW 8.1 mph - N/A   Clear
8:53 PM 73.0 °F - 26.1 °F 17% 29.93 in 10.0 mi South 5.8 mph - N/A   Clear
9:53 PM 70.0 °F - 25.0 °F 18% 29.91 in 10.0 mi South 6.9 mph - N/A   Clear
10:53 PM 52.0 °F - 41.0 °F 66% 29.96 in 10.0 mi Calm Calm - N/A   Clear
11:53 PM 50.0 °F - 41.0 °F 71% 29.96 in 10.0 mi Calm Calm - N/A   Clear